Location: El Chorro
(10.0985°N, 67.3542°W)
Time: 19:19:00
(UTC+00:00)

Cosmos 1455 Rocket - Pass Details

Date: 15 November 2025
Orbit: 598 x 622 km, 82.5° (Epoch: 06 December)

Event Time Altitude Azimuth Distance (km) Brightness Sun altitude
Rises 23:14:00 0° 178° (S) 2,852 6.7 -17.3°
Reaches altitude 10° 23:16:14 10° 176° (S) 1,945 5.7 -17.8°
Maximum altitude 23:20:29 66° 94° (E) 656 2.9 -18.8°
Enters shadow 23:22:40 28° 19° (NNE) 1,144 4.1 -19.3°
